| time (UTC) | temp C | wind direction | speed KPH | gust KPH | rain 1hr cm | rain 24hr cm | rain mn cm | humidity % | barometer mb |
| 20260503050800 | 2 | 341 | 3.2 | 3.2 | 0.00 | 0.00 | 0.00 | 77 | 1009.0 |
| 20260503050256 | 2 | 356 | 3.2 | 3.2 | 0.00 | 0.00 | 0.00 | 76 | 1009.0 |
| 20260503045754 | 2 | 334 | 4.8 | 4.8 | 0.00 | 0.00 | 0.00 | 77 | 1009.2 |
| 20260503045252 | 2 | 325 | 3.2 | 3.2 | 0.00 | 0.00 | 0.00 | 75 | 1009.1 |
| 20260503044748 | 2 | 319 | 4.8 | 4.8 | 0.00 | 0.00 | 0.00 | 75 | 1009.1 |
| 20260503044245 | 2 | 309 | 4.8 | 8.0 | 0.00 | 0.00 | 0.00 | 75 | 1009.4 |
| 20260503043742 | 2 | 319 | 4.8 | 4.8 | 0.00 | 0.00 | 0.00 | 75 | 1009.2 |
| 20260503043239 | 2 | 331 | 1.6 | 3.2 | 0.00 | 0.00 | 0.00 | 75 | 1009.2 |
| 20260503042735 | 2 | 324 | 4.8 | 4.8 | 0.00 | 0.00 | 0.00 | 75 | 1009.3 |
| 20260503042232 | 2 | 326 | 4.8 | 4.8 | 0.00 | 0.00 | 0.00 | 75 | 1009.2 |
| 20260503041728 | 2 | 331 | 3.2 | 4.8 | 0.00 | 0.00 | 0.00 | 74 | 1009.2 |
| 20260503041226 | 2 | 335 | 3.2 | 3.2 | 0.00 | 0.00 | 0.00 | 74 | 1009.5 |
| 20260503040724 | 2 | 0 | 1.6 | 1.6 | 0.00 | 0.00 | 0.00 | 74 | 1009.4 |
| 20260503040221 | 2 | 325 | 3.2 | 3.2 | 0.00 | 0.00 | 0.00 | 74 | 1009.2 |
| 20260503035717 | 2 | 355 | 3.2 | 3.2 | 0.00 | 0.10 | 0.10 | 74 | 1009.4 |
| 20260503035215 | 2 | 320 | 3.2 | 3.2 | 0.00 | 0.10 | 0.10 | 74 | 1009.5 |
| 20260503034712 | 2 | 323 | 3.2 | 4.8 | 0.00 | 0.10 | 0.10 | 75 | 1009.2 |
| 20260503034209 | 2 | 308 | 3.2 | 3.2 | 0.00 | 0.10 | 0.10 | 74 | 1009.5 |
| 20260503033706 | 2 | 310 | 3.2 | 3.2 | 0.00 | 0.10 | 0.10 | 75 | 1009.5 |
| 20260503033204 | 2 | 306 | 3.2 | 3.2 | 0.00 | 0.10 | 0.10 | 76 | 1009.3 |
| 20260503032702 | 2 | 347 | 1.6 | 3.2 | 0.00 | 0.10 | 0.10 | 77 | 1009.3 |
| 20260503032200 | 2 | 357 | 1.6 | 1.6 | 0.00 | 0.10 | 0.10 | 78 | 1009.3 |
| 20260503031657 | 1 | 355 | 1.6 | 1.6 | 0.00 | 0.10 | 0.10 | 82 | 1009.6 |
| 20260503031155 | 1 | 22 | 0.0 | 1.6 | 0.00 | 0.10 | 0.10 | 85 | 1009.5 |
| 20260503030651 | 1 | 21 | 0.0 | 1.6 | 0.00 | 0.10 | 0.10 | 82 | 1009.7 |
| 20260503030148 | 1 | 21 | 0.0 | 1.6 | 0.00 | 0.10 | 0.10 | 81 | 1009.5 |
| 20260503025644 | 1 | 6 | 1.6 | 1.6 | 0.00 | 0.10 | 0.10 | 82 | 1009.7 |
| 20260503025143 | 1 | 21 | 0.0 | 0.0 | 0.00 | 0.10 | 0.10 | 84 | 1009.3 |
| 20260503024638 | 1 | 21 | 0.0 | 1.6 | 0.00 | 0.10 | 0.10 | 82 | 1009.5 |
| 20260503024136 | 1 | 21 | 0.0 | 0.0 | 0.00 | 0.10 | 0.10 | 80 | 1009.5 |
| 20260503023633 | 2 | 21 | 0.0 | 0.0 | 0.00 | 0.10 | 0.10 | 79 | 1009.5 |
| 20260503023130 | 2 | 21 | 0.0 | 0.0 | 0.00 | 0.10 | 0.10 | 76 | 1009.6 |
| 20260503022625 | 2 | 20 | 0.0 | 1.6 | 0.00 | 0.10 | 0.10 | 76 | 1009.5 |
| 20260503022120 | 2 | 19 | 1.6 | 1.6 | 0.00 | 0.10 | 0.10 | 76 | 1009.6 |
| 20260503021618 | 2 | 19 | 1.6 | 1.6 | 0.00 | 0.10 | 0.10 | 75 | 1009.4 |
| 20260503021114 | 2 | 8 | 1.6 | 1.6 | 0.00 | 0.10 | 0.10 | 76 | 1009.4 |
| 20260503020611 | 2 | 23 | 0.0 | 0.0 | 0.00 | 0.10 | 0.10 | 76 | 1009.5 |
| 20260503020109 | 2 | 23 | 0.0 | 0.0 | 0.00 | 0.10 | 0.10 | 74 | 1009.7 |
| 20260503015605 | 3 | 23 | 0.0 | 0.0 | 0.00 | 0.10 | 0.10 | 72 | 1009.8 |
| 20260503015102 | 3 | 19 | 1.6 | 1.6 | 0.00 | 0.10 | 0.10 | 71 | 1009.8 |
| 20260503014558 | 3 | 18 | 1.6 | 1.6 | 0.00 | 0.10 | 0.10 | 69 | 1009.6 |
| 20260503014056 | 3 | 359 | 1.6 | 1.6 | 0.00 | 0.10 | 0.10 | 69 | 1009.5 |
| 20260503013553 | 3 | 17 | 1.6 | 1.6 | 0.00 | 0.10 | 0.10 | 68 | 1009.6 |
| 20260503013051 | 3 | 9 | 0.0 | 1.6 | 0.00 | 0.10 | 0.10 | 68 | 1009.7 |
| 20260503012548 | 4 | 354 | 3.2 | 3.2 | 0.00 | 0.10 | 0.10 | 67 | 1009.5 |
| 20260503012044 | 4 | 13 | 1.6 | 1.6 | 0.00 | 0.10 | 0.10 | 67 | 1009.6 |
| 20260503011541 | 4 | 32 | 1.6 | 1.6 | 0.00 | 0.10 | 0.10 | 67 | 1009.7 |
| 20260503011038 | 4 | 354 | 1.6 | 3.2 | 0.00 | 0.10 | 0.10 | 66 | 1009.5 |
| 20260503010534 | 4 | 353 | 1.6 | 1.6 | 0.00 | 0.10 | 0.10 | 66 | 1009.5 |
| 20260503010032 | 4 | 17 | 3.2 | 3.2 | 0.00 | 0.10 | 0.10 | 67 | 1009.6 |
| 20260503005529 | 5 | 10 | 1.6 | 1.6 | 0.00 | 0.10 | 0.10 | 66 | 1009.3 |
| 20260503005026 | 5 | 335 | 3.2 | 3.2 | 0.00 | 0.10 | 0.10 | 66 | 1009.2 |
| 20260503004522 | 5 | 327 | 3.2 | 3.2 | 0.00 | 0.10 | 0.10 | 67 | 1009.3 |
| 20260503004021 | 5 | 39 | 1.6 | 1.6 | 0.00 | 0.10 | 0.10 | 67 | 1009.3 |
| 20260503003517 | 5 | 328 | 3.2 | 3.2 | 0.00 | 0.10 | 0.10 | 66 | 1009.2 |
| 20260503003014 | 5 | 345 | 3.2 | 3.2 | 0.00 | 0.10 | 0.10 | 66 | 1009.2 |
| 20260503002511 | 5 | 6 | 3.2 | 3.2 | 0.00 | 0.10 | 0.10 | 66 | 1009.3 |
| 20260503002008 | 5 | 343 | 4.8 | 8.0 | 0.00 | 0.10 | 0.10 | 65 | 1009.0 |
| 20260503001504 | 5 | 0 | 3.2 | 3.2 | 0.00 | 0.10 | 0.10 | 64 | 1009.1 |
| 20260503001001 | 5 | 316 | 4.8 | 4.8 | 0.00 | 0.10 | 0.10 | 64 | 1009.0 |
| 20260503000453 | 5 | 14 | 4.8 | 4.8 | 0.00 | 0.10 | 0.10 | 63 | 1009.0 |
| 20260502235950 | 6 | 306 | 4.8 | 4.8 | 0.00 | 0.10 | 0.10 | 62 | 1009.1 |
| 20260502235447 | 6 | 311 | 4.8 | 8.0 | 0.00 | 0.10 | 0.10 | 62 | 1008.9 |
| 20260502234944 | 6 | 318 | 4.8 | 4.8 | 0.00 | 0.10 | 0.10 | 62 | 1008.8 |
| 20260502234440 | 6 | 326 | 4.8 | 4.8 | 0.00 | 0.10 | 0.10 | 60 | 1009.0 |
| 20260502233938 | 6 | 28 | 1.6 | 1.6 | 0.00 | 0.10 | 0.10 | 62 | 1009.0 |
| 20260502233433 | 6 | 323 | 4.8 | 4.8 | 0.00 | 0.10 | 0.10 | 60 | 1009.0 |
| 20260502232930 | 6 | 336 | 3.2 | 3.2 | 0.00 | 0.10 | 0.10 | 60 | 1008.8 |
| 20260502232426 | 7 | 319 | 4.8 | 8.0 | 0.00 | 0.10 | 0.10 | 59 | 1008.8 |
| 20260502231923 | 7 | 320 | 4.8 | 8.0 | 0.00 | 0.10 | 0.10 | 59 | 1008.5 |
| 20260502231421 | 7 | 323 | 3.2 | 4.8 | 0.00 | 0.10 | 0.10 | 58 | 1008.6 |
| 20260502230919 | 7 | 19 | 4.8 | 4.8 | 0.00 | 0.10 | 0.10 | 58 | 1008.8 |
| 20260502230417 | 7 | 340 | 3.2 | 3.2 | 0.00 | 0.10 | 0.10 | 57 | 1008.5 |
| 20260502225915 | 7 | 226 | 6.4 | 8.0 | 0.00 | 0.10 | 0.10 | 56 | 1008.7 |
| 20260502225410 | 7 | 310 | 4.8 | 9.7 | 0.00 | 0.10 | 0.10 | 56 | 1008.6 |
| 20260502224908 | 7 | 311 | 4.8 | 4.8 | 0.00 | 0.10 | 0.10 | 56 | 1008.5 |
| 20260502224403 | 7 | 315 | 4.8 | 4.8 | 0.00 | 0.10 | 0.10 | 55 | 1008.4 |
| 20260502223900 | 7 | 324 | 4.8 | 4.8 | 0.00 | 0.10 | 0.10 | 56 | 1008.3 |
| 20260502223358 | 7 | 312 | 6.4 | 8.0 | 0.00 | 0.10 | 0.10 | 56 | 1008.2 |
| 20260502222856 | 7 | 315 | 8.0 | 9.7 | 0.00 | 0.10 | 0.10 | 55 | 1008.2 |
| 20260502222354 | 7 | 310 | 4.8 | 8.0 | 0.00 | 0.10 | 0.10 | 57 | 1008.3 |
| 20260502221849 | 7 | 317 | 4.8 | 8.0 | 0.00 | 0.10 | 0.10 | 57 | 1008.4 |
| 20260502221346 | 7 | 1 | 6.4 | 8.0 | 0.00 | 0.10 | 0.10 | 56 | 1008.3 |
| 20260502220843 | 7 | 315 | 3.2 | 4.8 | 0.00 | 0.10 | 0.10 | 56 | 1008.3 |
| 20260502220339 | 7 | 309 | 8.0 | 11.3 | 0.00 | 0.10 | 0.10 | 55 | 1008.2 |
| 20260502215835 | 7 | 305 | 4.8 | 4.8 | 0.00 | 0.10 | 0.10 | 55 | 1008.3 |
| 20260502215333 | 8 | 335 | 8.0 | 8.0 | 0.00 | 0.10 | 0.10 | 54 | 1008.6 |
| 20260502214829 | 8 | 313 | 4.8 | 4.8 | 0.00 | 0.10 | 0.10 | 54 | 1008.2 |
| 20260502214326 | 8 | 349 | 3.2 | 3.2 | 0.00 | 0.10 | 0.10 | 54 | 1008.4 |
| 20260502213824 | 8 | 308 | 6.4 | 8.0 | 0.00 | 0.10 | 0.10 | 53 | 1008.5 |
| 20260502213321 | 8 | 326 | 6.4 | 9.7 | 0.00 | 0.10 | 0.10 | 52 | 1008.3 |
| 20260502212820 | 8 | 304 | 6.4 | 9.7 | 0.00 | 0.10 | 0.10 | 52 | 1008.1 |
| 20260502212317 | 8 | 312 | 9.7 | 11.3 | 0.00 | 0.10 | 0.10 | 52 | 1008.1 |
| 20260502211815 | 8 | 285 | 3.2 | 3.2 | 0.00 | 0.10 | 0.10 | 50 | 1008.1 |
| 20260502211310 | 9 | 351 | 8.0 | 9.7 | 0.00 | 0.10 | 0.10 | 50 | 1008.2 |
| 20260502210807 | 9 | 27 | 4.8 | 4.8 | 0.00 | 0.10 | 0.10 | 50 | 1007.9 |
| 20260502210259 | 9 | 204 | 6.4 | 8.0 | 0.00 | 0.10 | 0.10 | 51 | 1007.9 |
| 20260502205756 | 10 | 334 | 4.8 | 8.0 | 0.00 | 0.10 | 0.10 | 49 | 1008.0 |
| 20260502205252 | 10 | 273 | 3.2 | 3.2 | 0.00 | 0.10 | 0.10 | 48 | 1007.8 |
| 20260502204749 | 10 | 17 | 1.6 | 1.6 | 0.00 | 0.10 | 0.10 | 48 | 1008.1 |
| 20260502204246 | 10 | 9 | 3.2 | 4.8 | 0.00 | 0.10 | 0.10 | 48 | 1008.2 |
| 20260502203744 | 10 | 1 | 1.6 | 3.2 | 0.00 | 0.10 | 0.10 | 47 | 1007.8 |
| 20260502203242 | 10 | 313 | 4.8 | 4.8 | 0.00 | 0.10 | 0.10 | 47 | 1008.2 |
| 20260502202736 | 10 | 32 | 3.2 | 3.2 | 0.00 | 0.10 | 0.10 | 48 | 1008.0 |
| 20260502202235 | 9 | 333 | 4.8 | 4.8 | 0.00 | 0.10 | 0.10 | 48 | 1008.1 |
| 20260502201732 | 10 | 316 | 6.4 | 8.0 | 0.00 | 0.10 | 0.10 | 49 | 1008.1 |
| 20260502201228 | 10 | 291 | 6.4 | 9.7 | 0.00 | 0.10 | 0.10 | 48 | 1008.1 |
| 20260502200724 | 8 | 357 | 3.2 | 3.2 | 0.00 | 0.10 | 0.10 | 50 | 1008.1 |
| 20260502200220 | 10 | 296 | 6.4 | 11.3 | 0.00 | 0.10 | 0.10 | 48 | 1008.3 |
| 20260502195719 | 10 | 309 | 8.0 | 9.7 | 0.00 | 0.10 | 0.10 | 48 | 1008.3 |
| 20260502195215 | 9 | 338 | 4.8 | 4.8 | 0.00 | 0.10 | 0.10 | 50 | 1008.2 |
| 20260502194711 | 10 | 300 | 6.4 | 9.7 | 0.00 | 0.10 | 0.10 | 47 | 1008.6 |
| 20260502194209 | 11 | 354 | 3.2 | 3.2 | 0.00 | 0.10 | 0.10 | 45 | 1008.4 |
| 20260502193704 | 11 | 313 | 8.0 | 11.3 | 0.00 | 0.10 | 0.10 | 45 | 1008.5 |
| 20260502193202 | 11 | 298 | 6.4 | 9.7 | 0.00 | 0.10 | 0.10 | 43 | 1008.7 |
| 20260502192657 | 10 | 347 | 9.7 | 12.9 | 0.00 | 0.10 | 0.10 | 46 | 1008.4 |
| 20260502192155 | 10 | 290 | 6.4 | 9.7 | 0.00 | 0.10 | 0.10 | 45 | 1008.5 |
| 20260502191651 | 11 | 343 | 4.8 | 8.0 | 0.00 | 0.10 | 0.10 | 46 | 1008.6 |
| 20260502191149 | 10 | 319 | 3.2 | 4.8 | 0.00 | 0.10 | 0.10 | 47 | 1008.4 |
| 20260502190646 | 11 | 320 | 8.0 | 11.3 | 0.00 | 0.10 | 0.10 | 44 | 1008.6 |
| 20260502190144 | 11 | 311 | 8.0 | 8.0 | 0.00 | 0.10 | 0.10 | 45 | 1008.7 |
| 20260502185638 | 11 | 307 | 4.8 | 4.8 | 0.00 | 0.10 | 0.10 | 48 | 1008.6 |
| 20260502185135 | 10 | 311 | 8.0 | 9.7 | 0.00 | 0.10 | 0.10 | 46 | 1008.7 |
| 20260502184632 | 10 | 308 | 4.8 | 4.8 | 0.00 | 0.10 | 0.10 | 47 | 1008.7 |
| 20260502184127 | 10 | 305 | 3.2 | 3.2 | 0.00 | 0.10 | 0.10 | 47 | 1008.8 |
| 20260502183624 | 10 | 306 | 8.0 | 9.7 | 0.00 | 0.10 | 0.10 | 46 | 1008.7 |
| 20260502183120 | 11 | 321 | 4.8 | 8.0 | 0.00 | 0.10 | 0.10 | 44 | 1008.6 |
| 20260502182615 | 11 | 259 | 4.8 | 9.7 | 0.00 | 0.10 | 0.10 | 46 | 1008.7 |
| 20260502182111 | 10 | 296 | 8.0 | 9.7 | 0.00 | 0.10 | 0.10 | 46 | 1008.5 |
| 20260502181609 | 11 | 311 | 8.0 | 11.3 | 0.00 | 0.10 | 0.10 | 45 | 1008.6 |
| 20260502181108 | 11 | 123 | 4.8 | 8.0 | 0.00 | 0.10 | 0.10 | 43 | 1008.4 |
| 20260502180604 | 11 | 219 | 4.8 | 4.8 | 0.00 | 0.10 | 0.10 | 45 | 1008.3 |
| 20260502164008 | 11 | 299 | 6.4 | 8.0 | 0.00 | 0.10 | 0.10 | 56 | 1008.8 |
| 20260502163503 | 10 | 3 | 1.6 | 3.2 | 0.00 | 0.10 | 0.10 | 61 | 1008.6 |
| 20260502163000 | 10 | 333 | 6.4 | 9.7 | 0.00 | 0.10 | 0.10 | 60 | 1008.6 |
| 20260502162457 | 11 | 288 | 3.2 | 4.8 | 0.00 | 0.10 | 0.10 | 54 | 1008.8 |
| 20260502161954 | 11 | 272 | 3.2 | 3.2 | 0.00 | 0.10 | 0.10 | 58 | 1008.7 |
| 20260502161450 | 10 | 267 | 6.4 | 8.0 | 0.00 | 0.10 | 0.10 | 58 | 1008.7 |
| 20260502160949 | 10 | 308 | 4.8 | 4.8 | 0.00 | 0.10 | 0.10 | 62 | 1008.6 |
| 20260502160446 | 9 | 349 | 1.6 | 1.6 | 0.00 | 0.10 | 0.10 | 63 | 1008.7 |
| 20260502151930 | 10 | 239 | 4.8 | 8.0 | 0.00 | 0.10 | 0.10 | 66 | 1008.7 |
| 20260502151426 | 8 | 201 | 4.8 | 4.8 | 0.00 | 0.10 | 0.10 | 68 | 1008.8 |
| 20260502150924 | 8 | 294 | 3.2 | 8.0 | 0.00 | 0.10 | 0.10 | 70 | 1008.7 |
| 20260502150420 | 9 | 321 | 4.8 | 8.0 | 0.00 | 0.10 | 0.10 | 69 | 1008.9 |
| 20260502130306 | 5 | 258 | 3.2 | 4.8 | 0.00 | 0.10 | 0.10 | 87 | 1009.2 |
| 20260502123752 | 5 | 350 | 1.6 | 3.2 | 0.00 | 0.10 | 0.10 | 92 | 1009.1 |
| 20260502123249 | 5 | 359 | 3.2 | 3.2 | 0.00 | 0.10 | 0.10 | 91 | 1009.2 |
| 20260502122745 | 4 | 323 | 4.8 | 4.8 | 0.00 | 0.10 | 0.10 | 91 | 1009.1 |
| 20260502122241 | 4 | 288 | 4.8 | 8.0 | 0.00 | 0.10 | 0.10 | 91 | 1009.2 |
| 20260502121740 | 4 | 21 | 3.2 | 3.2 | 0.00 | 0.10 | 0.10 | 92 | 1009.2 |
| 20260502121238 | 4 | 313 | 4.8 | 8.0 | 0.00 | 0.10 | 0.10 | 93 | 1009.2 |
| 20260502120733 | 4 | 315 | 3.2 | 3.2 | 0.00 | 0.10 | 0.10 | 93 | 1008.9 |
| 20260502120230 | 4 | 48 | 0.0 | 1.6 | 0.00 | 0.10 | 0.10 | 94 | 1009.0 |
| 20260502115728 | 4 | 44 | 1.6 | 3.2 | 0.00 | 0.10 | 0.10 | 95 | 1009.0 |
| 20260502115225 | 4 | 315 | 6.4 | 8.0 | 0.00 | 0.10 | 0.10 | 95 | 1009.0 |
| 20260502114720 | 4 | 289 | 3.2 | 4.8 | 0.00 | 0.10 | 0.10 | 96 | 1009.0 |
| 20260502114218 | 3 | 276 | 4.8 | 4.8 | 0.00 | 0.10 | 0.10 | 96 | 1009.2 |
| 20260502113715 | 3 | 347 | 3.2 | 3.2 | 0.00 | 0.10 | 0.10 | 97 | 1009.4 |
| 20260502113213 | 3 | 320 | 3.2 | 4.8 | 0.00 | 0.10 | 0.10 | 97 | 1009.0 |
| 20260502112711 | 3 | 128 | 1.6 | 1.6 | 0.00 | 0.10 | 0.10 | 98 | 1009.1 |
| 20260502112208 | 3 | 47 | 0.0 | 1.6 | 0.00 | 0.10 | 0.10 | 98 | 1009.1 |
| 20260502111705 | 3 | 14 | 1.6 | 1.6 | 0.00 | 0.10 | 0.10 | 98 | 1008.8 |
| 20260502111203 | 3 | 306 | 0.0 | 0.0 | 0.00 | 0.10 | 0.10 | 98 | 1008.9 |
| 20260502110700 | 3 | 20 | 0.0 | 0.0 | 0.00 | 0.10 | 0.10 | 98 | 1008.8 |
| 20260502110157 | 3 | 61 | 1.6 | 1.6 | 0.00 | 0.10 | 0.10 | 98 | 1008.9 |
| 20260502105655 | 3 | 73 | 0.0 | 0.0 | 0.00 | 0.10 | 0.10 | 98 | 1008.9 |
| 20260502105152 | 3 | 23 | 0.0 | 1.6 | 0.00 | 0.10 | 0.10 | 98 | 1008.8 |
| 20260502104649 | 3 | 241 | 3.2 | 3.2 | 0.00 | 0.10 | 0.10 | 98 | 1008.7 |
| 20260502104147 | 3 | 338 | 1.6 | 3.2 | 0.00 | 0.10 | 0.10 | 98 | 1008.7 |
| 20260502103644 | 3 | 170 | 1.6 | 3.2 | 0.00 | 0.10 | 0.10 | 99 | 1008.6 |
| 20260502103142 | 3 | 328 | 4.8 | 4.8 | 0.00 | 0.10 | 0.10 | 99 | 1008.6 |
| 20260502102638 | 3 | 16 | 0.0 | 0.0 | 0.00 | 0.10 | 0.10 | 99 | 1008.7 |
| 20260502102135 | 3 | 5 | 1.6 | 1.6 | 0.00 | 0.10 | 0.10 | 99 | 1008.7 |
| 20260502101633 | 3 | 312 | 4.8 | 8.0 | 0.00 | 0.10 | 0.10 | 99 | 1008.5 |
| 20260502101131 | 3 | 328 | 4.8 | 4.8 | 0.00 | 0.10 | 0.10 | 99 | 1008.4 |
| 20260502100629 | 3 | 340 | 4.8 | 4.8 | 0.00 | 0.10 | 0.10 | 99 | 1008.3 |
| 20260502100127 | 3 | 345 | 0.0 | 0.0 | 0.00 | 0.10 | 0.10 | 99 | 1008.3 |
| 20260502091101 | 4 | 30 | 0.0 | 0.0 | 0.00 | 0.10 | 0.10 | 99 | 1008.1 |
| 20260502090558 | 4 | 33 | 1.6 | 1.6 | 0.00 | 0.10 | 0.10 | 99 | 1008.1 |
| 20260502071452 | 6 | 73 | 0.0 | 0.0 | 0.00 | 0.05 | 0.05 | 99 | 1007.9 |
| 20260502070950 | 6 | 71 | 0.0 | 0.0 | 0.00 | 0.05 | 0.05 | 99 | 1007.8 |
| 20260502070448 | 6 | 71 | 0.0 | 0.0 | 0.00 | 0.05 | 0.05 | 99 | 1007.8 |
| 20260502065946 | 6 | 75 | 0.0 | 0.0 | 0.00 | 0.05 | 0.05 | 99 | 1007.7 |
| 20260502065445 | 6 | 75 | 0.0 | 0.0 | 0.00 | 0.05 | 0.05 | 99 | 1007.9 |
| 20260502064942 | 6 | 76 | 0.0 | 0.0 | 0.00 | 0.05 | 0.05 | 99 | 1007.9 |
| 20260502064440 | 6 | 72 | 0.0 | 0.0 | 0.00 | 0.05 | 0.05 | 99 | 1008.0 |
| 20260502063937 | 6 | 84 | 0.0 | 0.0 | 0.00 | 0.05 | 0.05 | 99 | 1008.1 |
| 20260502063435 | 6 | 82 | 0.0 | 0.0 | 0.00 | 0.05 | 0.05 | 99 | 1007.9 |
| 20260502062932 | 6 | 83 | 0.0 | 0.0 | 0.00 | 0.05 | 0.05 | 99 | 1007.9 |
| 20260502062429 | 6 | 83 | 0.0 | 0.0 | 0.00 | 0.05 | 0.05 | 99 | 1008.1 |
| 20260502061928 | 6 | 86 | 0.0 | 0.0 | 0.00 | 0.05 | 0.05 | 99 | 1008.1 |
| 20260502061426 | 6 | 69 | 0.0 | 0.0 | 0.00 | 0.05 | 0.05 | 99 | 1008.0 |
| 20260502060921 | 6 | 86 | 0.0 | 0.0 | 0.00 | 0.05 | 0.05 | 99 | 1008.0 |
| 20260502060416 | 6 | 65 | 0.0 | 0.0 | 0.00 | 0.05 | 0.05 | 99 | 1007.8 |
| 20260502055914 | 6 | 58 | 0.0 | 0.0 | 0.00 | 0.05 | 0.05 | 99 | 1007.7 |
| 20260502055412 | 6 | 60 | 0.0 | 0.0 | 0.00 | 0.05 | 0.05 | 99 | 1007.7 |
| 20260502054912 | 6 | 60 | 0.0 | 0.0 | 0.00 | 0.05 | 0.05 | 99 | 1008.0 |
| 20260502054409 | 6 | 60 | 0.0 | 0.0 | 0.00 | 0.05 | 0.05 | 99 | 1008.3 |
| 20260502053906 | 6 | 60 | 0.0 | 0.0 | 0.00 | 0.05 | 0.05 | 99 | 1008.3 |
| 20260502053404 | 6 | 60 | 0.0 | 0.0 | 0.00 | 0.05 | 0.05 | 99 | 1008.2 |
| 20260502052900 | 6 | 60 | 0.0 | 0.0 | 0.00 | 0.05 | 0.05 | 99 | 1008.1 |
| 20260502052358 | 6 | 60 | 0.0 | 0.0 | 0.00 | 0.05 | 0.05 | 99 | 1008.3 |
| 20260502051856 | 6 | 59 | 0.0 | 0.0 | 0.00 | 0.05 | 0.05 | 99 | 1008.2 |
| 20260502051355 | 6 | 59 | 0.0 | 0.0 | 0.00 | 0.05 | 0.05 | 99 | 1008.4 |
| 20260502050851 | 6 | 58 | 0.0 | 0.0 | 0.00 | 0.05 | 0.05 | 99 | 1008.3 |